Home   Weather   Chongqing   Past weeks

Flag for China Past Weather in Chongqing, Chongqing Municipality, China — Yesterday and Last 2 Weeks

Now
57 °F

Light rain. Fog.


Feels Like: 57 °F
Forecast: 48 / 60 °F
Wind: 3 mph from Northwest

Location: Chongqing Airport

Current Time: Feb 21, 2017 at 7:24:06 am

Latest Report: Feb 21, 2017 at 7:00 am


Visibility: 1 mi

Pressure: 29.71 "Hg

Humidity: 88%

Dew Point: 54 °F

Location of ChongqingLocation

Past Weather in Chongqing — Graph

°F

Chongqing Temperature Yesterday

Maximum temperature yesterday: 61 °F (at 1:00 pm)
Minimum temperature yesterday: 54 °F (at 3:00 am)
Average temperature yesterday: 58 °F

High & Low Weather Summary for the Past Weeks

 TemperatureHumidityPressure
High68 °F (Feb 19, 5:00 pm)94% (Feb 7, 10:00 am)30.51 "Hg (Feb 7, 10:00 am)
Low37 °F (Feb 12, 7:00 am)29% (Feb 12, 5:00 pm)29.62 "Hg (Feb 19, 5:00 pm)
Average51 °F73%30.16 "Hg
* Reported Feb 6 6:00 am — Feb 21 6:00 am, Chongqing, Weather by CustomWeather, © 2017

Note: Actual official high and low records may vary slightly from our data, if they occured in-between our weather recording intervals... More about our weather records

Advertising

Chongqing Weather History for the Previous 24 Hours

Scroll right to see more
 ConditionsComfort  
Time TempWeatherWind HumidityBarometerVisibility
6:00 am
Tue, Feb 21
57 °FLight rain. Fog.1 mph88%29.68 "Hg1 mi
5:00 am57 °FFog.3 mph88%29.68 "Hg1 mi
4:00 am57 °FFog.1 mph88%29.68 "Hg3 mi
3:00 am57 °FFog.No wind88%29.68 "Hg3 mi
2:00 am59 °FOvercast.6 mph82%29.68 "Hg4 mi
1:00 am59 °FThundershowers. Overcast.1 mph82%29.68 "Hg4 mi
12:00 am59 °FLight rain. Passing clouds.10 mph82%29.71 "Hg4 mi
11:00 pm
Mon, Feb 20
61 °FLight rain. Passing clouds.10 mph77%29.71 "Hg4 mi
10:00 pm61 °FLight rain. Passing clouds.8 mph72%29.71 "Hg4 mi
9:00 pm61 °FFog.13 mph72%29.71 "Hg3 mi
8:00 pm59 °FFog.8 mph77%29.71 "Hg3 mi
7:00 pm59 °FFog.10 mph77%29.68 "Hg1 mi
6:00 pm61 °FFog.8 mph72%29.68 "Hg1 mi
5:00 pm61 °FFog.6 mph77%29.68 "Hg1 mi
4:00 pm61 °FFog.3 mph77%29.71 "Hg1 mi
3:00 pm61 °FFog.1 mph77%29.71 "Hg1 mi
2:00 pm61 °FFog.1 mph72%29.74 "Hg1 mi
1:00 pm61 °FFog.1 mph72%29.77 "Hg1 mi
12:00 pm59 °FFog.1 mph77%29.80 "Hg1 mi
11:00 am59 °FFog.1 mph77%29.80 "Hg1 mi
10:00 am57 °FFog.1 mph82%29.80 "Hg1 mi
9:00 am55 °FFog.1 mph82%29.77 "Hg1 mi
8:00 am55 °FFog.No wind82%29.77 "Hg1 mi
7:00 am55 °FFog.3 mph82%29.74 "Hg2 mi
Weather by CustomWeather, © 2017

See weather overviewHow to use our weather pages